Regional Weather Roundup
Issued by NWS

Home | Current Version | Previous Version | Text Only | Print | Product List | Glossary Off
Versions: 1 2 3 4 5 6 7 8 9 10 11 12 13 14 15 16 17 18 19 20 21 22 23 24 25 26 27 28 29 30 31 32 33 34 35 36 37 38 39 40 41 42 43 44 45 46 47 48 49 50

000
ASUS43 KLMK 011002
RWRKY
KENTUCKY REGIONAL WEATHER ROUNDUP
NATIONAL WEATHER SERVICE LOUISVILLE KY
600 AM EDT MON SEP 01 2014

NOTE "FAIR" INDICATES FEW OR NO CLOUDS BELOW 12,000 FEET
WITH NO SIGNIFICANT WEATHER AND/OR OBSTRUCTIONS TO VISIBILITY.

KYZ001>023-026-027-061>063-070>075-011100-
WESTERN AND SOUTH CENTRAL KENTUCKY

CITY           SKY/WX    TMP DP  RH WIND       PRES   REMARKS
PADUCAH        MOCLDY    77  73  87 S9        29.96F
HENDERSON      CLEAR     73  70  88 S8        29.96F
OWENSBORO      NOT AVBL
HOPKINSVILLE   MOCLDY    74  74 100 S7        30.02S
BOWLING GREEN  CLOUDY    73  71  93 S7        30.04F
GLASGOW        CLOUDY    72  72 100 S5        30.06S FOG
$$

KYZ024-025-028>034-038-045-046-053-011100-
NORTH CENTRAL KENTUCKY

CITY           SKY/WX    TMP DP  RH WIND       PRES   REMARKS
LOUISVILLE/SDF CLOUDY    76  72  87 S7        30.00F
LOUISVILLE/LOU CLOUDY    74  72  93 VRB3      30.01F
FORT KNOX      MOCLDY    73  73 100 S8        30.01F
$$

KYZ035>037-039>044-047>052-055>060-089>105-011100-
NORTHEAST KENTUCKY

CITY           SKY/WX    TMP DP  RH WIND       PRES   REMARKS
LEXINGTON      CLOUDY    75  71  87 SW7       30.06S
COVINGTON      CLOUDY    74  71  91 S7        30.01S
FRANKFORT      CLOUDY    74  72  93 SW9       30.03S
$$

KYZ054-064>069-076>088-106>120-011100-
SOUTHEAST KENTUCKY

CITY           SKY/WX    TMP DP  RH WIND       PRES   REMARKS
JACKSON        CLOUDY    71  69  93 CALM      30.10S
LONDON         CLOUDY    72  67  84 SW5       30.11S
SOMERSET       CLOUDY    70  70 100 CALM      30.10S
MIDDLESBORO    CLOUDY    67  67 100 CALM      30.13S
MONTICELLO     PTSUNNY   69  69 100 CALM      30.11S
$$



USA.gov is the U.S. government's official web portal to all federal, state and local government web resources and services.